Index of /20260503/WXO-DD/model_gdps/15km/12/024
Name Last modified Size Description
Parent Directory -
20260503T12Z_MSC_GDPS_AbsoluteVorticity_IsbL-0200_LatLon0.15_PT024H.grib2 2026-05-03 15:56 1.5M
20260503T12Z_MSC_GDPS_AbsoluteVorticity_IsbL-0250_LatLon0.15_PT024H.grib2 2026-05-03 15:56 1.3M
20260503T12Z_MSC_GDPS_AbsoluteVorticity_IsbL-0500_LatLon0.15_PT024H.grib2 2026-05-03 15:56 1.5M
20260503T12Z_MSC_GDPS_AbsoluteVorticity_IsbL-0700_LatLon0.15_PT024H.grib2 2026-05-03 15:56 1.3M
20260503T12Z_MSC_GDPS_AbsoluteVorticity_IsbL-0850_LatLon0.15_PT024H.grib2 2026-05-03 15:56 1.6M
20260503T12Z_MSC_GDPS_AirTemp-Max_AGL-2m_LatLon0.15_PT024H.grib2 2026-05-03 15:56 737K
20260503T12Z_MSC_GDPS_AirTemp-Min_AGL-2m_LatLon0.15_PT024H.grib2 2026-05-03 15:56 791K
20260503T12Z_MSC_GDPS_AirTemp_AGL-120m_LatLon0.15_PT024H.grib2 2026-05-03 15:56 905K
20260503T12Z_MSC_GDPS_AirTemp_AGL-2m_LatLon0.15_PT024H.grib2 2026-05-03 15:56 1.0M
20260503T12Z_MSC_GDPS_AirTemp_AGL-40m_LatLon0.15_PT024H.grib2 2026-05-03 15:56 808K
20260503T12Z_MSC_GDPS_AirTemp_AGL-80m_LatLon0.15_PT024H.grib2 2026-05-03 15:56 797K
20260503T12Z_MSC_GDPS_AirTemp_IsbL-0001_LatLon0.15_PT024H.grib2 2026-05-03 15:56 654K
20260503T12Z_MSC_GDPS_AirTemp_IsbL-0005_LatLon0.15_PT024H.grib2 2026-05-03 15:56 692K
20260503T12Z_MSC_GDPS_AirTemp_IsbL-0010_LatLon0.15_PT024H.grib2 2026-05-03 15:56 701K
20260503T12Z_MSC_GDPS_AirTemp_IsbL-0020_LatLon0.15_PT024H.grib2 2026-05-03 15:56 793K
20260503T12Z_MSC_GDPS_AirTemp_IsbL-0030_LatLon0.15_PT024H.grib2 2026-05-03 15:56 843K
20260503T12Z_MSC_GDPS_AirTemp_IsbL-0050_LatLon0.15_PT024H.grib2 2026-05-03 15:56 815K
20260503T12Z_MSC_GDPS_AirTemp_IsbL-0100_LatLon0.15_PT024H.grib2 2026-05-03 15:56 968K
20260503T12Z_MSC_GDPS_AirTemp_IsbL-0150_LatLon0.15_PT024H.grib2 2026-05-03 15:56 1.0M
20260503T12Z_MSC_GDPS_AirTemp_IsbL-0175_LatLon0.15_PT024H.grib2 2026-05-03 15:56 963K
20260503T12Z_MSC_GDPS_AirTemp_IsbL-0200_LatLon0.15_PT024H.grib2 2026-05-03 15:56 1.0M
20260503T12Z_MSC_GDPS_AirTemp_IsbL-0225_LatLon0.15_PT024H.grib2 2026-05-03 15:56 1.0M
20260503T12Z_MSC_GDPS_AirTemp_IsbL-0250_LatLon0.15_PT024H.grib2 2026-05-03 15:56 1.0M
20260503T12Z_MSC_GDPS_AirTemp_IsbL-0275_LatLon0.15_PT024H.grib2 2026-05-03 15:56 1.0M
20260503T12Z_MSC_GDPS_AirTemp_IsbL-0300_LatLon0.15_PT024H.grib2 2026-05-03 15:56 1.0M
20260503T12Z_MSC_GDPS_AirTemp_IsbL-0350_LatLon0.15_PT024H.grib2 2026-05-03 15:56 935K
20260503T12Z_MSC_GDPS_AirTemp_IsbL-0400_LatLon0.15_PT024H.grib2 2026-05-03 15:56 947K
20260503T12Z_MSC_GDPS_AirTemp_IsbL-0450_LatLon0.15_PT024H.grib2 2026-05-03 15:56 967K
20260503T12Z_MSC_GDPS_AirTemp_IsbL-0500_LatLon0.15_PT024H.grib2 2026-05-03 15:56 1.0M
20260503T12Z_MSC_GDPS_AirTemp_IsbL-0550_LatLon0.15_PT024H.grib2 2026-05-03 15:56 806K
20260503T12Z_MSC_GDPS_AirTemp_IsbL-0600_LatLon0.15_PT024H.grib2 2026-05-03 15:56 896K
20260503T12Z_MSC_GDPS_AirTemp_IsbL-0650_LatLon0.15_PT024H.grib2 2026-05-03 15:56 920K
20260503T12Z_MSC_GDPS_AirTemp_IsbL-0700_LatLon0.15_PT024H.grib2 2026-05-03 15:56 961K
20260503T12Z_MSC_GDPS_AirTemp_IsbL-0750_LatLon0.15_PT024H.grib2 2026-05-03 15:56 1.0M
20260503T12Z_MSC_GDPS_AirTemp_IsbL-0800_LatLon0.15_PT024H.grib2 2026-05-03 15:56 1.1M
20260503T12Z_MSC_GDPS_AirTemp_IsbL-0850_LatLon0.15_PT024H.grib2 2026-05-03 15:56 1.1M
20260503T12Z_MSC_GDPS_AirTemp_IsbL-0875_LatLon0.15_PT024H.grib2 2026-05-03 15:56 1.2M
20260503T12Z_MSC_GDPS_AirTemp_IsbL-0900_LatLon0.15_PT024H.grib2 2026-05-03 15:56 1.1M
20260503T12Z_MSC_GDPS_AirTemp_IsbL-0925_LatLon0.15_PT024H.grib2 2026-05-03 15:56 1.1M
20260503T12Z_MSC_GDPS_AirTemp_IsbL-0950_LatLon0.15_PT024H.grib2 2026-05-03 15:56 1.1M
20260503T12Z_MSC_GDPS_AirTemp_IsbL-0970_LatLon0.15_PT024H.grib2 2026-05-03 15:56 1.1M
20260503T12Z_MSC_GDPS_AirTemp_IsbL-0985_LatLon0.15_PT024H.grib2 2026-05-03 15:56 1.1M
20260503T12Z_MSC_GDPS_AirTemp_IsbL-1000_LatLon0.15_PT024H.grib2 2026-05-03 15:56 1.1M
20260503T12Z_MSC_GDPS_AirTemp_IsbL-1015_LatLon0.15_PT024H.grib2 2026-05-03 15:56 1.1M
20260503T12Z_MSC_GDPS_Albedo_Sfc_LatLon0.15_PT024H.grib2 2026-05-03 15:56 239K
20260503T12Z_MSC_GDPS_CAPE_Sfc_LatLon0.15_PT024H.grib2 2026-05-03 15:56 3.8M
20260503T12Z_MSC_GDPS_CIN_Sfc_LatLon0.15_PT024H.grib2 2026-05-03 15:56 2.9M
20260503T12Z_MSC_GDPS_CloudWater_EAtm_LatLon0.15_PT024H.grib2 2026-05-03 15:56 531K
20260503T12Z_MSC_GDPS_ConvectivePrecip-Accum_Sfc_LatLon0.15_PT024H.grib2 2026-05-03 15:56 2.3M
20260503T12Z_MSC_GDPS_DewPointDepression_AGL-2m_LatLon0.15_PT024H.grib2 2026-05-03 15:56 762K
20260503T12Z_MSC_GDPS_DewPointDepression_IsbL-0010_LatLon0.15_PT024H.grib2 2026-05-03 15:56 75K
20260503T12Z_MSC_GDPS_DewPointDepression_IsbL-0020_LatLon0.15_PT024H.grib2 2026-05-03 15:56 77K
20260503T12Z_MSC_GDPS_DewPointDepression_IsbL-0030_LatLon0.15_PT024H.grib2 2026-05-03 15:56 87K
20260503T12Z_MSC_GDPS_DewPointDepression_IsbL-0050_LatLon0.15_PT024H.grib2 2026-05-03 15:56 383K
20260503T12Z_MSC_GDPS_DewPointDepression_IsbL-0100_LatLon0.15_PT024H.grib2 2026-05-03 15:56 412K
20260503T12Z_MSC_GDPS_DewPointDepression_IsbL-0150_LatLon0.15_PT024H.grib2 2026-05-03 15:56 473K
20260503T12Z_MSC_GDPS_DewPointDepression_IsbL-0175_LatLon0.15_PT024H.grib2 2026-05-03 15:56 574K
20260503T12Z_MSC_GDPS_DewPointDepression_IsbL-0200_LatLon0.15_PT024H.grib2 2026-05-03 15:56 688K
20260503T12Z_MSC_GDPS_DewPointDepression_IsbL-0225_LatLon0.15_PT024H.grib2 2026-05-03 15:56 788K
20260503T12Z_MSC_GDPS_DewPointDepression_IsbL-0250_LatLon0.15_PT024H.grib2 2026-05-03 15:56 872K
20260503T12Z_MSC_GDPS_DewPointDepression_IsbL-0275_LatLon0.15_PT024H.grib2 2026-05-03 15:56 892K
20260503T12Z_MSC_GDPS_DewPointDepression_IsbL-0300_LatLon0.15_PT024H.grib2 2026-05-03 15:56 933K
20260503T12Z_MSC_GDPS_DewPointDepression_IsbL-0350_LatLon0.15_PT024H.grib2 2026-05-03 15:56 962K
20260503T12Z_MSC_GDPS_DewPointDepression_IsbL-0400_LatLon0.15_PT024H.grib2 2026-05-03 15:56 1.0M
20260503T12Z_MSC_GDPS_DewPointDepression_IsbL-0450_LatLon0.15_PT024H.grib2 2026-05-03 15:56 1.0M
20260503T12Z_MSC_GDPS_DewPointDepression_IsbL-0500_LatLon0.15_PT024H.grib2 2026-05-03 15:56 1.0M
20260503T12Z_MSC_GDPS_DewPointDepression_IsbL-0550_LatLon0.15_PT024H.grib2 2026-05-03 15:56 1.0M
20260503T12Z_MSC_GDPS_DewPointDepression_IsbL-0600_LatLon0.15_PT024H.grib2 2026-05-03 15:56 1.0M
20260503T12Z_MSC_GDPS_DewPointDepression_IsbL-0650_LatLon0.15_PT024H.grib2 2026-05-03 15:56 1.1M
20260503T12Z_MSC_GDPS_DewPointDepression_IsbL-0700_LatLon0.15_PT024H.grib2 2026-05-03 15:56 1.1M
20260503T12Z_MSC_GDPS_DewPointDepression_IsbL-0750_LatLon0.15_PT024H.grib2 2026-05-03 15:56 1.1M
20260503T12Z_MSC_GDPS_DewPointDepression_IsbL-0800_LatLon0.15_PT024H.grib2 2026-05-03 15:56 1.2M
20260503T12Z_MSC_GDPS_DewPointDepression_IsbL-0850_LatLon0.15_PT024H.grib2 2026-05-03 15:56 1.1M
20260503T12Z_MSC_GDPS_DewPointDepression_IsbL-0875_LatLon0.15_PT024H.grib2 2026-05-03 15:56 1.1M
20260503T12Z_MSC_GDPS_DewPointDepression_IsbL-0900_LatLon0.15_PT024H.grib2 2026-05-03 15:56 1.1M
20260503T12Z_MSC_GDPS_DewPointDepression_IsbL-0925_LatLon0.15_PT024H.grib2 2026-05-03 15:56 1.0M
20260503T12Z_MSC_GDPS_DewPointDepression_IsbL-0950_LatLon0.15_PT024H.grib2 2026-05-03 15:56 1.0M
20260503T12Z_MSC_GDPS_DewPointDepression_IsbL-0970_LatLon0.15_PT024H.grib2 2026-05-03 15:56 1.0M
20260503T12Z_MSC_GDPS_DewPointDepression_IsbL-0985_LatLon0.15_PT024H.grib2 2026-05-03 15:56 1.0M
20260503T12Z_MSC_GDPS_DewPointDepression_IsbL-1000_LatLon0.15_PT024H.grib2 2026-05-03 15:56 1.0M
20260503T12Z_MSC_GDPS_DewPointDepression_IsbL-1015_LatLon0.15_PT024H.grib2 2026-05-03 15:56 916K
20260503T12Z_MSC_GDPS_DewPoint_AGL-2m_LatLon0.15_PT024H.grib2 2026-05-03 15:56 612K
20260503T12Z_MSC_GDPS_DownwardLongwaveRadiationFlux-Accum_Sfc_LatLon0.15_PT024H.grib2 2026-05-03 15:56 1.0M
20260503T12Z_MSC_GDPS_DownwardShortwaveRadiationFlux-Accum_NTAtm_LatLon0.15_PT024H.grib2 2026-05-03 15:56 234K
20260503T12Z_MSC_GDPS_DownwardShortwaveRadiationFlux-Accum_Sfc_LatLon0.15_PT024H.grib2 2026-05-03 15:56 1.2M
20260503T12Z_MSC_GDPS_FreezingRain-Accum12h_Sfc_LatLon0.15_PT024H.grib2 2026-05-03 15:56 82K
20260503T12Z_MSC_GDPS_FreezingRain-Accum1h_Sfc_LatLon0.15_PT024H.grib2 2026-05-03 15:56 50K
20260503T12Z_MSC_GDPS_FreezingRain-Accum24h_Sfc_LatLon0.15_PT024H.grib2 2026-05-03 15:56 97K
20260503T12Z_MSC_GDPS_FreezingRain-Accum3h_Sfc_LatLon0.15_PT024H.grib2 2026-05-03 15:56 50K
20260503T12Z_MSC_GDPS_FreezingRain-Accum6h_Sfc_LatLon0.15_PT024H.grib2 2026-05-03 15:56 63K
20260503T12Z_MSC_GDPS_FreezingRain-Accum_Sfc_LatLon0.15_PT024H.grib2 2026-05-03 15:56 124K
20260503T12Z_MSC_GDPS_GeopotentialHeight_IsbL-0001_LatLon0.15_PT024H.grib2 2026-05-03 15:56 435K
20260503T12Z_MSC_GDPS_GeopotentialHeight_IsbL-0005_LatLon0.15_PT024H.grib2 2026-05-03 15:56 489K
20260503T12Z_MSC_GDPS_GeopotentialHeight_IsbL-0010_LatLon0.15_PT024H.grib2 2026-05-03 15:56 478K
20260503T12Z_MSC_GDPS_GeopotentialHeight_IsbL-0020_LatLon0.15_PT024H.grib2 2026-05-03 15:56 413K
20260503T12Z_MSC_GDPS_GeopotentialHeight_IsbL-0030_LatLon0.15_PT024H.grib2 2026-05-03 15:56 572K
20260503T12Z_MSC_GDPS_GeopotentialHeight_IsbL-0050_LatLon0.15_PT024H.grib2 2026-05-03 15:56 574K
20260503T12Z_MSC_GDPS_GeopotentialHeight_IsbL-0100_LatLon0.15_PT024H.grib2 2026-05-03 15:56 612K
20260503T12Z_MSC_GDPS_GeopotentialHeight_IsbL-0150_LatLon0.15_PT024H.grib2 2026-05-03 15:56 628K
20260503T12Z_MSC_GDPS_GeopotentialHeight_IsbL-0175_LatLon0.15_PT024H.grib2 2026-05-03 15:56 632K
20260503T12Z_MSC_GDPS_GeopotentialHeight_IsbL-0200_LatLon0.15_PT024H.grib2 2026-05-03 15:56 640K
20260503T12Z_MSC_GDPS_GeopotentialHeight_IsbL-0225_LatLon0.15_PT024H.grib2 2026-05-03 15:56 639K
20260503T12Z_MSC_GDPS_GeopotentialHeight_IsbL-0250_LatLon0.15_PT024H.grib2 2026-05-03 15:56 645K
20260503T12Z_MSC_GDPS_GeopotentialHeight_IsbL-0275_LatLon0.15_PT024H.grib2 2026-05-03 15:56 647K
20260503T12Z_MSC_GDPS_GeopotentialHeight_IsbL-0300_LatLon0.15_PT024H.grib2 2026-05-03 15:56 646K
20260503T12Z_MSC_GDPS_GeopotentialHeight_IsbL-0350_LatLon0.15_PT024H.grib2 2026-05-03 15:56 634K
20260503T12Z_MSC_GDPS_GeopotentialHeight_IsbL-0400_LatLon0.15_PT024H.grib2 2026-05-03 15:56 626K
20260503T12Z_MSC_GDPS_GeopotentialHeight_IsbL-0450_LatLon0.15_PT024H.grib2 2026-05-03 15:56 616K
20260503T12Z_MSC_GDPS_GeopotentialHeight_IsbL-0500_LatLon0.15_PT024H.grib2 2026-05-03 15:56 607K
20260503T12Z_MSC_GDPS_GeopotentialHeight_IsbL-0550_LatLon0.15_PT024H.grib2 2026-05-03 15:56 528K
20260503T12Z_MSC_GDPS_GeopotentialHeight_IsbL-0600_LatLon0.15_PT024H.grib2 2026-05-03 15:56 525K
20260503T12Z_MSC_GDPS_GeopotentialHeight_IsbL-0650_LatLon0.15_PT024H.grib2 2026-05-03 15:56 694K
20260503T12Z_MSC_GDPS_GeopotentialHeight_IsbL-0700_LatLon0.15_PT024H.grib2 2026-05-03 15:56 691K
20260503T12Z_MSC_GDPS_GeopotentialHeight_IsbL-0750_LatLon0.15_PT024H.grib2 2026-05-03 15:56 695K
20260503T12Z_MSC_GDPS_GeopotentialHeight_IsbL-0800_LatLon0.15_PT024H.grib2 2026-05-03 15:56 708K
20260503T12Z_MSC_GDPS_GeopotentialHeight_IsbL-0850_LatLon0.15_PT024H.grib2 2026-05-03 15:56 713K
20260503T12Z_MSC_GDPS_GeopotentialHeight_IsbL-0875_LatLon0.15_PT024H.grib2 2026-05-03 15:56 715K
20260503T12Z_MSC_GDPS_GeopotentialHeight_IsbL-0900_LatLon0.15_PT024H.grib2 2026-05-03 15:56 726K
20260503T12Z_MSC_GDPS_GeopotentialHeight_IsbL-0925_LatLon0.15_PT024H.grib2 2026-05-03 15:56 733K
20260503T12Z_MSC_GDPS_GeopotentialHeight_IsbL-0950_LatLon0.15_PT024H.grib2 2026-05-03 15:56 740K
20260503T12Z_MSC_GDPS_GeopotentialHeight_IsbL-0970_LatLon0.15_PT024H.grib2 2026-05-03 15:56 750K
20260503T12Z_MSC_GDPS_GeopotentialHeight_IsbL-0985_LatLon0.15_PT024H.grib2 2026-05-03 15:56 765K
20260503T12Z_MSC_GDPS_GeopotentialHeight_IsbL-1000_LatLon0.15_PT024H.grib2 2026-05-03 15:56 786K
20260503T12Z_MSC_GDPS_GeopotentialHeight_IsbL-1015_LatLon0.15_PT024H.grib2 2026-05-03 15:56 808K
20260503T12Z_MSC_GDPS_Humidex_Sfc_LatLon0.15_PT024H.grib2 2026-05-03 15:56 5.3M
20260503T12Z_MSC_GDPS_IcePellets-Accum12h_Sfc_LatLon0.15_PT024H.grib2 2026-05-03 15:56 17K
20260503T12Z_MSC_GDPS_IcePellets-Accum1h_Sfc_LatLon0.15_PT024H.grib2 2026-05-03 15:56 8.4K
20260503T12Z_MSC_GDPS_IcePellets-Accum24h_Sfc_LatLon0.15_PT024H.grib2 2026-05-03 15:56 21K
20260503T12Z_MSC_GDPS_IcePellets-Accum3h_Sfc_LatLon0.15_PT024H.grib2 2026-05-03 15:56 9.8K
20260503T12Z_MSC_GDPS_IcePellets-Accum6h_Sfc_LatLon0.15_PT024H.grib2 2026-05-03 15:56 13K
20260503T12Z_MSC_GDPS_IcePellets-Accum_Sfc_LatLon0.15_PT024H.grib2 2026-05-03 15:56 26K
20260503T12Z_MSC_GDPS_KIndex_Sfc_LatLon0.15_PT024H.grib2 2026-05-03 15:56 6.5M
20260503T12Z_MSC_GDPS_LatentHeatNetFlux_Sfc_LatLon0.15_PT024H.grib2 2026-05-03 15:56 553K
20260503T12Z_MSC_GDPS_LiftedIndex-MU-VT_IsbL-0500_LatLon0.15_PT024H.grib2 2026-05-03 15:56 5.4M
20260503T12Z_MSC_GDPS_NetLongwaveRadiationFlux-Accum_Sfc_LatLon0.15_PT024H.grib2 2026-05-03 15:56 1.2M
20260503T12Z_MSC_GDPS_NetShortwaveRadiationFlux-Accum_Sfc_LatLon0.15_PT024H.grib2 2026-05-03 15:56 1.1M
20260503T12Z_MSC_GDPS_O3MixingRatio_Sfc_LatLon0.15_PT024H.grib2 2026-05-03 16:46 2.0M
20260503T12Z_MSC_GDPS_O3_EAtm_LatLon0.15_PT024H.grib2 2026-05-03 16:46 2.5M
20260503T12Z_MSC_GDPS_PlanetaryBoundaryLayerHeight_Sfc_LatLon0.15_PT024H.grib2 2026-05-03 15:56 2.5M
20260503T12Z_MSC_GDPS_Precip-Accum12h_Sfc_LatLon0.15_PT024H.grib2 2026-05-03 15:56 4.3M
20260503T12Z_MSC_GDPS_Precip-Accum1h_Sfc_LatLon0.15_PT024H.grib2 2026-05-03 15:56 3.3M
20260503T12Z_MSC_GDPS_Precip-Accum24h_Sfc_LatLon0.15_PT024H.grib2 2026-05-03 15:56 4.5M
20260503T12Z_MSC_GDPS_Precip-Accum3h_Sfc_LatLon0.15_PT024H.grib2 2026-05-03 15:56 3.5M
20260503T12Z_MSC_GDPS_Precip-Accum6h_Sfc_LatLon0.15_PT024H.grib2 2026-05-03 15:56 3.9M
20260503T12Z_MSC_GDPS_Precip-Accum_Sfc_LatLon0.15_PT024H.grib2 2026-05-03 15:56 4.3M
20260503T12Z_MSC_GDPS_PrecipRate_Sfc_LatLon0.15_PT024H.grib2 2026-05-03 15:56 3.0M
20260503T12Z_MSC_GDPS_PrecipType-Instant_Sfc_LatLon0.15_PT024H.grib2 2026-05-03 15:56 1.6M
20260503T12Z_MSC_GDPS_Pressure_MSL_LatLon0.15_PT024H.grib2 2026-05-03 15:56 820K
20260503T12Z_MSC_GDPS_Pressure_PVU-1.5_LatLon0.15_PT024H.grib2 2026-05-03 15:56 5.8M
20260503T12Z_MSC_GDPS_Pressure_PVU-1_LatLon0.15_PT024H.grib2 2026-05-03 15:56 6.0M
20260503T12Z_MSC_GDPS_Pressure_PVU-2_LatLon0.15_PT024H.grib2 2026-05-03 15:56 5.6M
20260503T12Z_MSC_GDPS_Pressure_Sfc_LatLon0.15_PT024H.grib2 2026-05-03 15:56 1.1M
20260503T12Z_MSC_GDPS_RadiativeTemp_Sfc_LatLon0.15_PT024H.grib2 2026-05-03 15:56 498K
20260503T12Z_MSC_GDPS_Rain-Accum12h_Sfc_LatLon0.15_PT024H.grib2 2026-05-03 15:56 2.9M
20260503T12Z_MSC_GDPS_Rain-Accum1h_Sfc_LatLon0.15_PT024H.grib2 2026-05-03 15:56 1.7M
20260503T12Z_MSC_GDPS_Rain-Accum24h_Sfc_LatLon0.15_PT024H.grib2 2026-05-03 15:56 3.1M
20260503T12Z_MSC_GDPS_Rain-Accum3h_Sfc_LatLon0.15_PT024H.grib2 2026-05-03 15:56 1.9M
20260503T12Z_MSC_GDPS_Rain-Accum6h_Sfc_LatLon0.15_PT024H.grib2 2026-05-03 15:56 2.5M
20260503T12Z_MSC_GDPS_Rain-Accum_Sfc_LatLon0.15_PT024H.grib2 2026-05-03 15:56 3.2M
20260503T12Z_MSC_GDPS_RelativeHumidity_AGL-2m_LatLon0.15_PT024H.grib2 2026-05-03 15:56 1.1M
20260503T12Z_MSC_GDPS_RelativeHumidity_IsbL-0010_LatLon0.15_PT024H.grib2 2026-05-03 15:56 141K
20260503T12Z_MSC_GDPS_RelativeHumidity_IsbL-0020_LatLon0.15_PT024H.grib2 2026-05-03 15:56 177K
20260503T12Z_MSC_GDPS_RelativeHumidity_IsbL-0030_LatLon0.15_PT024H.grib2 2026-05-03 15:56 276K
20260503T12Z_MSC_GDPS_RelativeHumidity_IsbL-0050_LatLon0.15_PT024H.grib2 2026-05-03 15:56 426K
20260503T12Z_MSC_GDPS_RelativeHumidity_IsbL-0100_LatLon0.15_PT024H.grib2 2026-05-03 15:56 516K
20260503T12Z_MSC_GDPS_RelativeHumidity_IsbL-0150_LatLon0.15_PT024H.grib2 2026-05-03 15:56 661K
20260503T12Z_MSC_GDPS_RelativeHumidity_IsbL-0175_LatLon0.15_PT024H.grib2 2026-05-03 15:56 783K
20260503T12Z_MSC_GDPS_RelativeHumidity_IsbL-0200_LatLon0.15_PT024H.grib2 2026-05-03 15:56 703K
20260503T12Z_MSC_GDPS_RelativeHumidity_IsbL-0225_LatLon0.15_PT024H.grib2 2026-05-03 15:56 791K
20260503T12Z_MSC_GDPS_RelativeHumidity_IsbL-0250_LatLon0.15_PT024H.grib2 2026-05-03 15:56 871K
20260503T12Z_MSC_GDPS_RelativeHumidity_IsbL-0275_LatLon0.15_PT024H.grib2 2026-05-03 15:56 894K
20260503T12Z_MSC_GDPS_RelativeHumidity_IsbL-0300_LatLon0.15_PT024H.grib2 2026-05-03 15:56 936K
20260503T12Z_MSC_GDPS_RelativeHumidity_IsbL-0350_LatLon0.15_PT024H.grib2 2026-05-03 15:56 955K
20260503T12Z_MSC_GDPS_RelativeHumidity_IsbL-0400_LatLon0.15_PT024H.grib2 2026-05-03 15:56 1.0M
20260503T12Z_MSC_GDPS_RelativeHumidity_IsbL-0450_LatLon0.15_PT024H.grib2 2026-05-03 15:56 1.0M
20260503T12Z_MSC_GDPS_RelativeHumidity_IsbL-0500_LatLon0.15_PT024H.grib2 2026-05-03 15:56 1.0M
20260503T12Z_MSC_GDPS_RelativeHumidity_IsbL-0550_LatLon0.15_PT024H.grib2 2026-05-03 15:56 1.1M
20260503T12Z_MSC_GDPS_RelativeHumidity_IsbL-0600_LatLon0.15_PT024H.grib2 2026-05-03 15:56 1.1M
20260503T12Z_MSC_GDPS_RelativeHumidity_IsbL-0650_LatLon0.15_PT024H.grib2 2026-05-03 15:56 1.1M
20260503T12Z_MSC_GDPS_RelativeHumidity_IsbL-0700_LatLon0.15_PT024H.grib2 2026-05-03 15:56 1.1M
20260503T12Z_MSC_GDPS_RelativeHumidity_IsbL-0750_LatLon0.15_PT024H.grib2 2026-05-03 15:56 1.2M
20260503T12Z_MSC_GDPS_RelativeHumidity_IsbL-0800_LatLon0.15_PT024H.grib2 2026-05-03 15:56 1.3M
20260503T12Z_MSC_GDPS_RelativeHumidity_IsbL-0850_LatLon0.15_PT024H.grib2 2026-05-03 15:56 1.3M
20260503T12Z_MSC_GDPS_RelativeHumidity_IsbL-0875_LatLon0.15_PT024H.grib2 2026-05-03 15:56 1.3M
20260503T12Z_MSC_GDPS_RelativeHumidity_IsbL-0900_LatLon0.15_PT024H.grib2 2026-05-03 15:56 1.3M
20260503T12Z_MSC_GDPS_RelativeHumidity_IsbL-0925_LatLon0.15_PT024H.grib2 2026-05-03 15:56 1.2M
20260503T12Z_MSC_GDPS_RelativeHumidity_IsbL-0950_LatLon0.15_PT024H.grib2 2026-05-03 15:56 1.2M
20260503T12Z_MSC_GDPS_RelativeHumidity_IsbL-0970_LatLon0.15_PT024H.grib2 2026-05-03 15:56 1.2M
20260503T12Z_MSC_GDPS_RelativeHumidity_IsbL-0985_LatLon0.15_PT024H.grib2 2026-05-03 15:56 1.1M
20260503T12Z_MSC_GDPS_RelativeHumidity_IsbL-1000_LatLon0.15_PT024H.grib2 2026-05-03 15:56 1.1M
20260503T12Z_MSC_GDPS_RelativeHumidity_IsbL-1015_LatLon0.15_PT024H.grib2 2026-05-03 15:56 1.0M
20260503T12Z_MSC_GDPS_RelativeVorticity_IsbL-0200_LatLon0.15_PT024H.grib2 2026-05-03 15:56 1.5M
20260503T12Z_MSC_GDPS_RelativeVorticity_IsbL-0250_LatLon0.15_PT024H.grib2 2026-05-03 15:56 1.6M
20260503T12Z_MSC_GDPS_RelativeVorticity_IsbL-0500_LatLon0.15_PT024H.grib2 2026-05-03 15:56 1.5M
20260503T12Z_MSC_GDPS_RelativeVorticity_IsbL-0700_LatLon0.15_PT024H.grib2 2026-05-03 15:56 1.3M
20260503T12Z_MSC_GDPS_RelativeVorticity_IsbL-0850_LatLon0.15_PT024H.grib2 2026-05-03 15:56 1.6M
20260503T12Z_MSC_GDPS_Runoff-Accum_Sfc_LatLon0.15_PT024H.grib2 2026-05-03 15:56 118K
20260503T12Z_MSC_GDPS_SensibleHeatNetFlux_Sfc_LatLon0.15_PT024H.grib2 2026-05-03 15:56 647K
20260503T12Z_MSC_GDPS_ShowalterIndex_IsbL-0500_LatLon0.15_PT024H.grib2 2026-05-03 15:56 6.2M
20260503T12Z_MSC_GDPS_Snow-Accum12h_Sfc_LatLon0.15_PT024H.grib2 2026-05-03 15:56 1.3M
20260503T12Z_MSC_GDPS_Snow-Accum1h_Sfc_LatLon0.15_PT024H.grib2 2026-05-03 15:56 1.1M
20260503T12Z_MSC_GDPS_Snow-Accum24h_Sfc_LatLon0.15_PT024H.grib2 2026-05-03 15:56 1.4M
20260503T12Z_MSC_GDPS_Snow-Accum3h_Sfc_LatLon0.15_PT024H.grib2 2026-05-03 15:56 1.0M
20260503T12Z_MSC_GDPS_Snow-Accum6h_Sfc_LatLon0.15_PT024H.grib2 2026-05-03 15:56 1.3M
20260503T12Z_MSC_GDPS_Snow-Accum_Sfc_LatLon0.15_PT024H.grib2 2026-05-03 15:56 1.6M
20260503T12Z_MSC_GDPS_SnowDensity_Sfc_LatLon0.15_PT024H.grib2 2026-05-03 15:56 248K
20260503T12Z_MSC_GDPS_SnowDepth_Sfc_LatLon0.15_PT024H.grib2 2026-05-03 15:56 1.7M
20260503T12Z_MSC_GDPS_SoilTemp_DBS-0to10cm_LatLon0.15_PT024H.grib2 2026-05-03 15:56 499K
20260503T12Z_MSC_GDPS_SoilTemp_Sfc_LatLon0.15_PT024H.grib2 2026-05-03 15:56 568K
20260503T12Z_MSC_GDPS_SoilVolumetricIceContent_Sfc_LatLon0.15_PT024H.grib2 2026-05-03 15:56 195K
20260503T12Z_MSC_GDPS_SoilVolumetricWaterContent_DBS-0to10cm_LatLon0.15_PT024H.grib2 2026-05-03 15:56 589K
20260503T12Z_MSC_GDPS_SoilVolumetricWaterContent_DBS-0to1cm_LatLon0.15_PT024H.grib2 2026-05-03 15:56 646K
20260503T12Z_MSC_GDPS_SpecificHumidity_AGL-120m_LatLon0.15_PT024H.grib2 2026-05-03 15:56 1.1M
20260503T12Z_MSC_GDPS_SpecificHumidity_AGL-2m_LatLon0.15_PT024H.grib2 2026-05-03 15:56 1.2M
20260503T12Z_MSC_GDPS_SpecificHumidity_AGL-40m_LatLon0.15_PT024H.grib2 2026-05-03 15:56 1.1M
20260503T12Z_MSC_GDPS_SpecificHumidity_AGL-80m_LatLon0.15_PT024H.grib2 2026-05-03 15:56 1.1M
20260503T12Z_MSC_GDPS_SpecificHumidity_IsbL-0001_LatLon0.15_PT024H.grib2 2026-05-03 15:56 1.1M
20260503T12Z_MSC_GDPS_SpecificHumidity_IsbL-0005_LatLon0.15_PT024H.grib2 2026-05-03 15:56 1.3M
20260503T12Z_MSC_GDPS_SpecificHumidity_IsbL-0010_LatLon0.15_PT024H.grib2 2026-05-03 15:56 1.4M
20260503T12Z_MSC_GDPS_SpecificHumidity_IsbL-0020_LatLon0.15_PT024H.grib2 2026-05-03 15:56 1.4M
20260503T12Z_MSC_GDPS_SpecificHumidity_IsbL-0030_LatLon0.15_PT024H.grib2 2026-05-03 15:56 1.4M
20260503T12Z_MSC_GDPS_SpecificHumidity_IsbL-0050_LatLon0.15_PT024H.grib2 2026-05-03 15:56 1.4M
20260503T12Z_MSC_GDPS_SpecificHumidity_IsbL-0100_LatLon0.15_PT024H.grib2 2026-05-03 15:56 1.4M
20260503T12Z_MSC_GDPS_SpecificHumidity_IsbL-0150_LatLon0.15_PT024H.grib2 2026-05-03 15:56 1.3M
20260503T12Z_MSC_GDPS_SpecificHumidity_IsbL-0175_LatLon0.15_PT024H.grib2 2026-05-03 15:56 1.3M
20260503T12Z_MSC_GDPS_SpecificHumidity_IsbL-0200_LatLon0.15_PT024H.grib2 2026-05-03 15:56 1.3M
20260503T12Z_MSC_GDPS_SpecificHumidity_IsbL-0225_LatLon0.15_PT024H.grib2 2026-05-03 15:56 1.3M
20260503T12Z_MSC_GDPS_SpecificHumidity_IsbL-0250_LatLon0.15_PT024H.grib2 2026-05-03 15:56 1.4M
20260503T12Z_MSC_GDPS_SpecificHumidity_IsbL-0275_LatLon0.15_PT024H.grib2 2026-05-03 15:56 1.3M
20260503T12Z_MSC_GDPS_SpecificHumidity_IsbL-0300_LatLon0.15_PT024H.grib2 2026-05-03 15:56 1.2M
20260503T12Z_MSC_GDPS_SpecificHumidity_IsbL-0350_LatLon0.15_PT024H.grib2 2026-05-03 15:56 1.2M
20260503T12Z_MSC_GDPS_SpecificHumidity_IsbL-0400_LatLon0.15_PT024H.grib2 2026-05-03 15:56 1.5M
20260503T12Z_MSC_GDPS_SpecificHumidity_IsbL-0450_LatLon0.15_PT024H.grib2 2026-05-03 15:56 1.6M
20260503T12Z_MSC_GDPS_SpecificHumidity_IsbL-0500_LatLon0.15_PT024H.grib2 2026-05-03 15:56 1.4M
20260503T12Z_MSC_GDPS_SpecificHumidity_IsbL-0550_LatLon0.15_PT024H.grib2 2026-05-03 15:56 1.6M
20260503T12Z_MSC_GDPS_SpecificHumidity_IsbL-0600_LatLon0.15_PT024H.grib2 2026-05-03 15:56 1.7M
20260503T12Z_MSC_GDPS_SpecificHumidity_IsbL-0650_LatLon0.15_PT024H.grib2 2026-05-03 15:56 1.5M
20260503T12Z_MSC_GDPS_SpecificHumidity_IsbL-0700_LatLon0.15_PT024H.grib2 2026-05-03 15:56 1.6M
20260503T12Z_MSC_GDPS_SpecificHumidity_IsbL-0750_LatLon0.15_PT024H.grib2 2026-05-03 15:56 1.7M
20260503T12Z_MSC_GDPS_SpecificHumidity_IsbL-0800_LatLon0.15_PT024H.grib2 2026-05-03 15:56 1.8M
20260503T12Z_MSC_GDPS_SpecificHumidity_IsbL-0850_LatLon0.15_PT024H.grib2 2026-05-03 15:56 1.9M
20260503T12Z_MSC_GDPS_SpecificHumidity_IsbL-0875_LatLon0.15_PT024H.grib2 2026-05-03 15:56 1.6M
20260503T12Z_MSC_GDPS_SpecificHumidity_IsbL-0900_LatLon0.15_PT024H.grib2 2026-05-03 15:56 1.6M
20260503T12Z_MSC_GDPS_SpecificHumidity_IsbL-0925_LatLon0.15_PT024H.grib2 2026-05-03 15:56 1.6M
20260503T12Z_MSC_GDPS_SpecificHumidity_IsbL-0950_LatLon0.15_PT024H.grib2 2026-05-03 15:56 1.6M
20260503T12Z_MSC_GDPS_SpecificHumidity_IsbL-0970_LatLon0.15_PT024H.grib2 2026-05-03 15:56 1.5M
20260503T12Z_MSC_GDPS_SpecificHumidity_IsbL-0985_LatLon0.15_PT024H.grib2 2026-05-03 15:56 1.5M
20260503T12Z_MSC_GDPS_SpecificHumidity_IsbL-1000_LatLon0.15_PT024H.grib2 2026-05-03 15:56 1.5M
20260503T12Z_MSC_GDPS_SpecificHumidity_IsbL-1015_LatLon0.15_PT024H.grib2 2026-05-03 15:56 1.5M
20260503T12Z_MSC_GDPS_SpecificHumidity_Sfc_LatLon0.15_PT024H.grib2 2026-05-03 15:56 676K
20260503T12Z_MSC_GDPS_Thickness_IsbL-0850to0700_LatLon0.15_PT024H.grib2 2026-05-03 15:56 471K
20260503T12Z_MSC_GDPS_Thickness_IsbL-1000to0500_LatLon0.15_PT024H.grib2 2026-05-03 15:56 372K
20260503T12Z_MSC_GDPS_Thickness_IsbL-1000to0850_LatLon0.15_PT024H.grib2 2026-05-03 15:56 488K
20260503T12Z_MSC_GDPS_TotalCloudCover_Sfc_LatLon0.15_PT024H.grib2 2026-05-03 15:56 832K
20260503T12Z_MSC_GDPS_TotalTotalsIndex_Sfc_LatLon0.15_PT024H.grib2 2026-05-03 15:56 6.2M
20260503T12Z_MSC_GDPS_UVIndex-ClearSky_Sfc_LatLon0.15_PT024H.grib2 2026-05-03 16:46 1.0M
20260503T12Z_MSC_GDPS_UVIndex_Sfc_LatLon0.15_PT024H.grib2 2026-05-03 16:46 1.4M
20260503T12Z_MSC_GDPS_UpwardLongwaveRadiationFlux_NTAtm_LatLon0.15_PT024H.grib2 2026-05-03 15:56 845K
20260503T12Z_MSC_GDPS_VerticalVelocity_IsbL-0200_LatLon0.15_PT024H.grib2 2026-05-03 15:56 1.2M
20260503T12Z_MSC_GDPS_VerticalVelocity_IsbL-0250_LatLon0.15_PT024H.grib2 2026-05-03 15:56 1.1M
20260503T12Z_MSC_GDPS_VerticalVelocity_IsbL-0500_LatLon0.15_PT024H.grib2 2026-05-03 15:56 1.0M
20260503T12Z_MSC_GDPS_VerticalVelocity_IsbL-0600_LatLon0.15_PT024H.grib2 2026-05-03 15:56 1.1M
20260503T12Z_MSC_GDPS_VerticalVelocity_IsbL-0700_LatLon0.15_PT024H.grib2 2026-05-03 15:56 1.2M
20260503T12Z_MSC_GDPS_VerticalVelocity_IsbL-0850_LatLon0.15_PT024H.grib2 2026-05-03 15:56 1.3M
20260503T12Z_MSC_GDPS_WindChill_Sfc_LatLon0.15_PT024H.grib2 2026-05-03 15:56 5.3M
20260503T12Z_MSC_GDPS_WindDir_AGL-10m_LatLon0.15_PT024H.grib2 2026-05-03 15:56 1.3M
20260503T12Z_MSC_GDPS_WindDir_AGL-120m_LatLon0.15_PT024H.grib2 2026-05-03 15:56 1.3M
20260503T12Z_MSC_GDPS_WindDir_AGL-40m_LatLon0.15_PT024H.grib2 2026-05-03 15:56 1.4M
20260503T12Z_MSC_GDPS_WindDir_AGL-80m_LatLon0.15_PT024H.grib2 2026-05-03 15:56 1.3M
20260503T12Z_MSC_GDPS_WindDir_IsbL-0001_LatLon0.15_PT024H.grib2 2026-05-03 15:56 674K
20260503T12Z_MSC_GDPS_WindDir_IsbL-0005_LatLon0.15_PT024H.grib2 2026-05-03 15:56 826K
20260503T12Z_MSC_GDPS_WindDir_IsbL-0010_LatLon0.15_PT024H.grib2 2026-05-03 15:56 870K
20260503T12Z_MSC_GDPS_WindDir_IsbL-0020_LatLon0.15_PT024H.grib2 2026-05-03 15:56 963K
20260503T12Z_MSC_GDPS_WindDir_IsbL-0030_LatLon0.15_PT024H.grib2 2026-05-03 15:56 958K
20260503T12Z_MSC_GDPS_WindDir_IsbL-0050_LatLon0.15_PT024H.grib2 2026-05-03 15:56 954K
20260503T12Z_MSC_GDPS_WindDir_IsbL-0100_LatLon0.15_PT024H.grib2 2026-05-03 15:56 1.0M
20260503T12Z_MSC_GDPS_WindDir_IsbL-0150_LatLon0.15_PT024H.grib2 2026-05-03 15:56 1.0M
20260503T12Z_MSC_GDPS_WindDir_IsbL-0175_LatLon0.15_PT024H.grib2 2026-05-03 15:56 1.1M
20260503T12Z_MSC_GDPS_WindDir_IsbL-0200_LatLon0.15_PT024H.grib2 2026-05-03 15:56 1.1M
20260503T12Z_MSC_GDPS_WindDir_IsbL-0225_LatLon0.15_PT024H.grib2 2026-05-03 15:56 1.1M
20260503T12Z_MSC_GDPS_WindDir_IsbL-0250_LatLon0.15_PT024H.grib2 2026-05-03 15:56 1.1M
20260503T12Z_MSC_GDPS_WindDir_IsbL-0275_LatLon0.15_PT024H.grib2 2026-05-03 15:56 1.2M
20260503T12Z_MSC_GDPS_WindDir_IsbL-0300_LatLon0.15_PT024H.grib2 2026-05-03 15:56 1.2M
20260503T12Z_MSC_GDPS_WindDir_IsbL-0350_LatLon0.15_PT024H.grib2 2026-05-03 15:56 1.2M
20260503T12Z_MSC_GDPS_WindDir_IsbL-0400_LatLon0.15_PT024H.grib2 2026-05-03 15:56 1.3M
20260503T12Z_MSC_GDPS_WindDir_IsbL-0450_LatLon0.15_PT024H.grib2 2026-05-03 15:56 1.3M
20260503T12Z_MSC_GDPS_WindDir_IsbL-0500_LatLon0.15_PT024H.grib2 2026-05-03 15:56 1.3M
20260503T12Z_MSC_GDPS_WindDir_IsbL-0550_LatLon0.15_PT024H.grib2 2026-05-03 15:56 1.4M
20260503T12Z_MSC_GDPS_WindDir_IsbL-0600_LatLon0.15_PT024H.grib2 2026-05-03 15:56 1.4M
20260503T12Z_MSC_GDPS_WindDir_IsbL-0650_LatLon0.15_PT024H.grib2 2026-05-03 15:56 1.5M
20260503T12Z_MSC_GDPS_WindDir_IsbL-0700_LatLon0.15_PT024H.grib2 2026-05-03 15:56 1.6M
20260503T12Z_MSC_GDPS_WindDir_IsbL-0750_LatLon0.15_PT024H.grib2 2026-05-03 15:56 1.7M
20260503T12Z_MSC_GDPS_WindDir_IsbL-0800_LatLon0.15_PT024H.grib2 2026-05-03 15:56 1.8M
20260503T12Z_MSC_GDPS_WindDir_IsbL-0850_LatLon0.15_PT024H.grib2 2026-05-03 15:56 1.9M
20260503T12Z_MSC_GDPS_WindDir_IsbL-0875_LatLon0.15_PT024H.grib2 2026-05-03 15:56 1.9M
20260503T12Z_MSC_GDPS_WindDir_IsbL-0900_LatLon0.15_PT024H.grib2 2026-05-03 15:56 1.9M
20260503T12Z_MSC_GDPS_WindDir_IsbL-0925_LatLon0.15_PT024H.grib2 2026-05-03 15:56 1.9M
20260503T12Z_MSC_GDPS_WindDir_IsbL-0950_LatLon0.15_PT024H.grib2 2026-05-03 15:56 1.9M
20260503T12Z_MSC_GDPS_WindDir_IsbL-0970_LatLon0.15_PT024H.grib2 2026-05-03 15:56 2.0M
20260503T12Z_MSC_GDPS_WindDir_IsbL-0985_LatLon0.15_PT024H.grib2 2026-05-03 15:56 2.0M
20260503T12Z_MSC_GDPS_WindDir_IsbL-1000_LatLon0.15_PT024H.grib2 2026-05-03 15:56 2.0M
20260503T12Z_MSC_GDPS_WindDir_IsbL-1015_LatLon0.15_PT024H.grib2 2026-05-03 15:56 2.0M
20260503T12Z_MSC_GDPS_WindGust-Max_AGL-10m_LatLon0.15_PT024H.grib2 2026-05-03 15:56 2.2M
20260503T12Z_MSC_GDPS_WindGust-Min_AGL-10m_LatLon0.15_PT024H.grib2 2026-05-03 15:56 2.2M
20260503T12Z_MSC_GDPS_WindGust_AGL-10m_LatLon0.15_PT024H.grib2 2026-05-03 15:56 2.2M
20260503T12Z_MSC_GDPS_WindSpeed_AGL-10m_LatLon0.15_PT024H.grib2 2026-05-03 15:56 1.1M
20260503T12Z_MSC_GDPS_WindSpeed_AGL-120m_LatLon0.15_PT024H.grib2 2026-05-03 15:56 1.2M
20260503T12Z_MSC_GDPS_WindSpeed_AGL-40m_LatLon0.15_PT024H.grib2 2026-05-03 15:56 1.2M
20260503T12Z_MSC_GDPS_WindSpeed_AGL-80m_LatLon0.15_PT024H.grib2 2026-05-03 15:56 1.2M
20260503T12Z_MSC_GDPS_WindSpeed_IsbL-0001_LatLon0.15_PT024H.grib2 2026-05-03 15:56 646K
20260503T12Z_MSC_GDPS_WindSpeed_IsbL-0005_LatLon0.15_PT024H.grib2 2026-05-03 15:56 700K
20260503T12Z_MSC_GDPS_WindSpeed_IsbL-0010_LatLon0.15_PT024H.grib2 2026-05-03 15:56 636K
20260503T12Z_MSC_GDPS_WindSpeed_IsbL-0020_LatLon0.15_PT024H.grib2 2026-05-03 15:56 674K
20260503T12Z_MSC_GDPS_WindSpeed_IsbL-0030_LatLon0.15_PT024H.grib2 2026-05-03 15:56 876K
20260503T12Z_MSC_GDPS_WindSpeed_IsbL-0050_LatLon0.15_PT024H.grib2 2026-05-03 15:56 918K
20260503T12Z_MSC_GDPS_WindSpeed_IsbL-0100_LatLon0.15_PT024H.grib2 2026-05-03 15:56 1.1M
20260503T12Z_MSC_GDPS_WindSpeed_IsbL-0150_LatLon0.15_PT024H.grib2 2026-05-03 15:56 946K
20260503T12Z_MSC_GDPS_WindSpeed_IsbL-0175_LatLon0.15_PT024H.grib2 2026-05-03 15:56 1.0M
20260503T12Z_MSC_GDPS_WindSpeed_IsbL-0200_LatLon0.15_PT024H.grib2 2026-05-03 15:56 1.1M
20260503T12Z_MSC_GDPS_WindSpeed_IsbL-0225_LatLon0.15_PT024H.grib2 2026-05-03 15:56 1.1M
20260503T12Z_MSC_GDPS_WindSpeed_IsbL-0250_LatLon0.15_PT024H.grib2 2026-05-03 15:56 1.1M
20260503T12Z_MSC_GDPS_WindSpeed_IsbL-0275_LatLon0.15_PT024H.grib2 2026-05-03 15:56 1.1M
20260503T12Z_MSC_GDPS_WindSpeed_IsbL-0300_LatLon0.15_PT024H.grib2 2026-05-03 15:56 1.1M
20260503T12Z_MSC_GDPS_WindSpeed_IsbL-0350_LatLon0.15_PT024H.grib2 2026-05-03 15:56 1.1M
20260503T12Z_MSC_GDPS_WindSpeed_IsbL-0400_LatLon0.15_PT024H.grib2 2026-05-03 15:56 1.1M
20260503T12Z_MSC_GDPS_WindSpeed_IsbL-0450_LatLon0.15_PT024H.grib2 2026-05-03 15:56 1.1M
20260503T12Z_MSC_GDPS_WindSpeed_IsbL-0500_LatLon0.15_PT024H.grib2 2026-05-03 15:56 1.1M
20260503T12Z_MSC_GDPS_WindSpeed_IsbL-0550_LatLon0.15_PT024H.grib2 2026-05-03 15:56 1.1M
20260503T12Z_MSC_GDPS_WindSpeed_IsbL-0600_LatLon0.15_PT024H.grib2 2026-05-03 15:56 1.1M
20260503T12Z_MSC_GDPS_WindSpeed_IsbL-0650_LatLon0.15_PT024H.grib2 2026-05-03 15:56 1.5M
20260503T12Z_MSC_GDPS_WindSpeed_IsbL-0700_LatLon0.15_PT024H.grib2 2026-05-03 15:56 1.5M
20260503T12Z_MSC_GDPS_WindSpeed_IsbL-0750_LatLon0.15_PT024H.grib2 2026-05-03 15:56 1.6M
20260503T12Z_MSC_GDPS_WindSpeed_IsbL-0800_LatLon0.15_PT024H.grib2 2026-05-03 15:56 1.7M
20260503T12Z_MSC_GDPS_WindSpeed_IsbL-0850_LatLon0.15_PT024H.grib2 2026-05-03 15:56 1.8M
20260503T12Z_MSC_GDPS_WindSpeed_IsbL-0875_LatLon0.15_PT024H.grib2 2026-05-03 15:56 1.8M
20260503T12Z_MSC_GDPS_WindSpeed_IsbL-0900_LatLon0.15_PT024H.grib2 2026-05-03 15:56 1.8M
20260503T12Z_MSC_GDPS_WindSpeed_IsbL-0925_LatLon0.15_PT024H.grib2 2026-05-03 15:56 1.9M
20260503T12Z_MSC_GDPS_WindSpeed_IsbL-0950_LatLon0.15_PT024H.grib2 2026-05-03 15:56 1.9M
20260503T12Z_MSC_GDPS_WindSpeed_IsbL-0970_LatLon0.15_PT024H.grib2 2026-05-03 15:56 1.8M
20260503T12Z_MSC_GDPS_WindSpeed_IsbL-0985_LatLon0.15_PT024H.grib2 2026-05-03 15:56 1.9M
20260503T12Z_MSC_GDPS_WindSpeed_IsbL-1000_LatLon0.15_PT024H.grib2 2026-05-03 15:56 1.8M
20260503T12Z_MSC_GDPS_WindSpeed_IsbL-1015_LatLon0.15_PT024H.grib2 2026-05-03 15:56 1.8M
20260503T12Z_MSC_GDPS_WindU_AGL-10m_LatLon0.15_PT024H.grib2 2026-05-03 15:56 1.6M
20260503T12Z_MSC_GDPS_WindU_AGL-120m_LatLon0.15_PT024H.grib2 2026-05-03 15:56 970K
20260503T12Z_MSC_GDPS_WindU_AGL-40m_LatLon0.15_PT024H.grib2 2026-05-03 15:56 1.2M
20260503T12Z_MSC_GDPS_WindU_AGL-80m_LatLon0.15_PT024H.grib2 2026-05-03 15:56 971K
20260503T12Z_MSC_GDPS_WindU_IsbL-0001_LatLon0.15_PT024H.grib2 2026-05-03 15:56 503K
20260503T12Z_MSC_GDPS_WindU_IsbL-0005_LatLon0.15_PT024H.grib2 2026-05-03 15:56 699K
20260503T12Z_MSC_GDPS_WindU_IsbL-0010_LatLon0.15_PT024H.grib2 2026-05-03 15:56 709K
20260503T12Z_MSC_GDPS_WindU_IsbL-0020_LatLon0.15_PT024H.grib2 2026-05-03 15:56 740K
20260503T12Z_MSC_GDPS_WindU_IsbL-0030_LatLon0.15_PT024H.grib2 2026-05-03 15:56 747K
20260503T12Z_MSC_GDPS_WindU_IsbL-0050_LatLon0.15_PT024H.grib2 2026-05-03 15:56 777K
20260503T12Z_MSC_GDPS_WindU_IsbL-0100_LatLon0.15_PT024H.grib2 2026-05-03 15:56 872K
20260503T12Z_MSC_GDPS_WindU_IsbL-0150_LatLon0.15_PT024H.grib2 2026-05-03 15:56 1.0M
20260503T12Z_MSC_GDPS_WindU_IsbL-0175_LatLon0.15_PT024H.grib2 2026-05-03 15:56 1.0M
20260503T12Z_MSC_GDPS_WindU_IsbL-0200_LatLon0.15_PT024H.grib2 2026-05-03 15:56 841K
20260503T12Z_MSC_GDPS_WindU_IsbL-0225_LatLon0.15_PT024H.grib2 2026-05-03 15:56 854K
20260503T12Z_MSC_GDPS_WindU_IsbL-0250_LatLon0.15_PT024H.grib2 2026-05-03 15:56 860K
20260503T12Z_MSC_GDPS_WindU_IsbL-0275_LatLon0.15_PT024H.grib2 2026-05-03 15:56 889K
20260503T12Z_MSC_GDPS_WindU_IsbL-0300_LatLon0.15_PT024H.grib2 2026-05-03 15:56 881K
20260503T12Z_MSC_GDPS_WindU_IsbL-0350_LatLon0.15_PT024H.grib2 2026-05-03 15:56 897K
20260503T12Z_MSC_GDPS_WindU_IsbL-0400_LatLon0.15_PT024H.grib2 2026-05-03 15:56 1.1M
20260503T12Z_MSC_GDPS_WindU_IsbL-0450_LatLon0.15_PT024H.grib2 2026-05-03 15:56 1.1M
20260503T12Z_MSC_GDPS_WindU_IsbL-0500_LatLon0.15_PT024H.grib2 2026-05-03 15:56 1.1M
20260503T12Z_MSC_GDPS_WindU_IsbL-0550_LatLon0.15_PT024H.grib2 2026-05-03 15:56 1.1M
20260503T12Z_MSC_GDPS_WindU_IsbL-0600_LatLon0.15_PT024H.grib2 2026-05-03 15:56 1.2M
20260503T12Z_MSC_GDPS_WindU_IsbL-0650_LatLon0.15_PT024H.grib2 2026-05-03 15:56 1.2M
20260503T12Z_MSC_GDPS_WindU_IsbL-0700_LatLon0.15_PT024H.grib2 2026-05-03 15:56 1.2M
20260503T12Z_MSC_GDPS_WindU_IsbL-0750_LatLon0.15_PT024H.grib2 2026-05-03 15:56 1.3M
20260503T12Z_MSC_GDPS_WindU_IsbL-0800_LatLon0.15_PT024H.grib2 2026-05-03 15:56 1.4M
20260503T12Z_MSC_GDPS_WindU_IsbL-0850_LatLon0.15_PT024H.grib2 2026-05-03 15:56 1.4M
20260503T12Z_MSC_GDPS_WindU_IsbL-0875_LatLon0.15_PT024H.grib2 2026-05-03 15:56 1.5M
20260503T12Z_MSC_GDPS_WindU_IsbL-0900_LatLon0.15_PT024H.grib2 2026-05-03 15:56 1.4M
20260503T12Z_MSC_GDPS_WindU_IsbL-0925_LatLon0.15_PT024H.grib2 2026-05-03 15:56 1.4M
20260503T12Z_MSC_GDPS_WindU_IsbL-0950_LatLon0.15_PT024H.grib2 2026-05-03 15:56 1.4M
20260503T12Z_MSC_GDPS_WindU_IsbL-0970_LatLon0.15_PT024H.grib2 2026-05-03 15:56 1.4M
20260503T12Z_MSC_GDPS_WindU_IsbL-0985_LatLon0.15_PT024H.grib2 2026-05-03 15:56 1.4M
20260503T12Z_MSC_GDPS_WindU_IsbL-1000_LatLon0.15_PT024H.grib2 2026-05-03 15:56 1.7M
20260503T12Z_MSC_GDPS_WindU_IsbL-1015_LatLon0.15_PT024H.grib2 2026-05-03 15:56 1.7M
20260503T12Z_MSC_GDPS_WindV_AGL-10m_LatLon0.15_PT024H.grib2 2026-05-03 15:56 1.6M
20260503T12Z_MSC_GDPS_WindV_AGL-120m_LatLon0.15_PT024H.grib2 2026-05-03 15:56 965K
20260503T12Z_MSC_GDPS_WindV_AGL-40m_LatLon0.15_PT024H.grib2 2026-05-03 15:56 960K
20260503T12Z_MSC_GDPS_WindV_AGL-80m_LatLon0.15_PT024H.grib2 2026-05-03 15:56 966K
20260503T12Z_MSC_GDPS_WindV_IsbL-0001_LatLon0.15_PT024H.grib2 2026-05-03 15:56 714K
20260503T12Z_MSC_GDPS_WindV_IsbL-0005_LatLon0.15_PT024H.grib2 2026-05-03 15:56 864K
20260503T12Z_MSC_GDPS_WindV_IsbL-0010_LatLon0.15_PT024H.grib2 2026-05-03 15:56 816K
20260503T12Z_MSC_GDPS_WindV_IsbL-0020_LatLon0.15_PT024H.grib2 2026-05-03 15:56 863K
20260503T12Z_MSC_GDPS_WindV_IsbL-0030_LatLon0.15_PT024H.grib2 2026-05-03 15:56 946K
20260503T12Z_MSC_GDPS_WindV_IsbL-0050_LatLon0.15_PT024H.grib2 2026-05-03 15:56 1.0M
20260503T12Z_MSC_GDPS_WindV_IsbL-0100_LatLon0.15_PT024H.grib2 2026-05-03 15:56 862K
20260503T12Z_MSC_GDPS_WindV_IsbL-0150_LatLon0.15_PT024H.grib2 2026-05-03 15:56 1.0M
20260503T12Z_MSC_GDPS_WindV_IsbL-0175_LatLon0.15_PT024H.grib2 2026-05-03 15:56 1.0M
20260503T12Z_MSC_GDPS_WindV_IsbL-0200_LatLon0.15_PT024H.grib2 2026-05-03 15:56 841K
20260503T12Z_MSC_GDPS_WindV_IsbL-0225_LatLon0.15_PT024H.grib2 2026-05-03 15:56 910K
20260503T12Z_MSC_GDPS_WindV_IsbL-0250_LatLon0.15_PT024H.grib2 2026-05-03 15:56 912K
20260503T12Z_MSC_GDPS_WindV_IsbL-0275_LatLon0.15_PT024H.grib2 2026-05-03 15:56 939K
20260503T12Z_MSC_GDPS_WindV_IsbL-0300_LatLon0.15_PT024H.grib2 2026-05-03 15:56 932K
20260503T12Z_MSC_GDPS_WindV_IsbL-0350_LatLon0.15_PT024H.grib2 2026-05-03 15:56 946K
20260503T12Z_MSC_GDPS_WindV_IsbL-0400_LatLon0.15_PT024H.grib2 2026-05-03 15:56 891K
20260503T12Z_MSC_GDPS_WindV_IsbL-0450_LatLon0.15_PT024H.grib2 2026-05-03 15:56 891K
20260503T12Z_MSC_GDPS_WindV_IsbL-0500_LatLon0.15_PT024H.grib2 2026-05-03 15:56 1.1M
20260503T12Z_MSC_GDPS_WindV_IsbL-0550_LatLon0.15_PT024H.grib2 2026-05-03 15:56 1.1M
20260503T12Z_MSC_GDPS_WindV_IsbL-0600_LatLon0.15_PT024H.grib2 2026-05-03 15:56 1.1M
20260503T12Z_MSC_GDPS_WindV_IsbL-0650_LatLon0.15_PT024H.grib2 2026-05-03 15:56 1.2M
20260503T12Z_MSC_GDPS_WindV_IsbL-0700_LatLon0.15_PT024H.grib2 2026-05-03 15:56 1.2M
20260503T12Z_MSC_GDPS_WindV_IsbL-0750_LatLon0.15_PT024H.grib2 2026-05-03 15:56 1.3M
20260503T12Z_MSC_GDPS_WindV_IsbL-0800_LatLon0.15_PT024H.grib2 2026-05-03 15:56 1.4M
20260503T12Z_MSC_GDPS_WindV_IsbL-0850_LatLon0.15_PT024H.grib2 2026-05-03 15:56 1.4M
20260503T12Z_MSC_GDPS_WindV_IsbL-0875_LatLon0.15_PT024H.grib2 2026-05-03 15:56 1.4M
20260503T12Z_MSC_GDPS_WindV_IsbL-0900_LatLon0.15_PT024H.grib2 2026-05-03 15:56 1.5M
20260503T12Z_MSC_GDPS_WindV_IsbL-0925_LatLon0.15_PT024H.grib2 2026-05-03 15:56 1.4M
20260503T12Z_MSC_GDPS_WindV_IsbL-0950_LatLon0.15_PT024H.grib2 2026-05-03 15:56 1.4M
20260503T12Z_MSC_GDPS_WindV_IsbL-0970_LatLon0.15_PT024H.grib2 2026-05-03 15:56 1.4M
20260503T12Z_MSC_GDPS_WindV_IsbL-0985_LatLon0.15_PT024H.grib2 2026-05-03 15:56 1.4M
20260503T12Z_MSC_GDPS_WindV_IsbL-1000_LatLon0.15_PT024H.grib2 2026-05-03 15:56 1.7M
20260503T12Z_MSC_GDPS_WindV_IsbL-1015_LatLon0.15_PT024H.grib2 2026-05-03 15:56 1.6M